HJ3GNC-11 Weather Reports


time (UTC)temp
C
wind
direction
speed
KPH
gust
KPH
rain 1hr
cm
rain 24hr
cm
rain mn
cm
humidity
%
barometer
mb
20260507122241 8 73 0.0 0.0 0.00 0.00 0.00 91 1020.0
20260507120642 11 73 0.0 0.0 0.00 0.00 0.00 89 1020.0
20260507115028 10 78 0.0 0.0 0.00 0.00 0.00 89 1020.0
20260507113443 8 78 0.0 0.0 0.00 0.00 0.00 89 1020.0
20260507111854 8 68 0.0 0.0 0.00 0.00 0.00 93 1020.0
20260507110306 8 68 0.0 0.0 0.00 0.00 0.00 92 1020.0
20260507104725 8 68 0.0 0.0 0.00 0.00 0.00 90 1020.0
20260507103144 8 68 0.0 0.0 0.00 0.00 0.00 90 1020.0
20260507101604 8 74 0.0 0.0 0.00 0.00 0.00 90 1020.0
20260507100024 8 74 0.0 0.0 0.00 0.00 0.00 90 1020.0
20260507094441 8 74 0.0 0.0 0.00 0.00 0.00 90 1020.0
20260507092858 8 77 0.0 0.0 0.00 0.00 0.00 91 1020.0
20260507091313 8 77 0.0 0.0 0.00 0.00 0.00 91 1020.0
20260507085728 8 77 0.0 0.0 0.00 0.00 0.00 91 1020.0
20260507084145 8 77 0.0 0.0 0.00 0.00 0.00 91 1020.0
20260507082601 8 74 0.0 0.0 0.00 0.00 0.00 92 1021.0
20260507081015 8 74 0.0 0.0 0.00 0.00 0.00 92 1021.0
20260507075433 8 74 0.0 0.0 0.00 0.00 0.00 92 1021.0
20260507073847 8 74 0.0 0.0 0.00 0.00 0.00 92 1021.0
20260507072306 8 70 0.0 0.0 0.00 0.00 0.00 92 1021.0
20260507070715 8 70 0.0 0.0 0.00 0.00 0.00 92 1021.0
20260507065129 8 70 0.0 0.0 0.00 0.00 0.00 93 1021.0
20260507063545 8 70 0.0 0.0 0.00 0.00 0.00 92 1021.0
20260507062002 8 73 0.0 0.0 0.00 0.00 0.00 91 1021.0
20260507060419 8 73 0.0 0.0 0.00 0.00 0.00 91 1021.0
20260507054838 8 73 0.0 0.0 0.00 0.00 0.00 91 1021.0
20260507053257 8 73 0.0 0.0 0.00 0.00 0.00 90 1022.0
20260507051713 10 72 0.0 0.0 0.00 0.00 0.00 86 1022.0
20260507050120 10 72 0.0 0.0 0.00 0.00 0.00 86 1022.0
20260507044534 10 72 0.0 0.0 0.00 0.00 0.00 87 1022.0
20260507042947 10 69 0.0 0.0 0.00 0.00 0.00 82 1022.0
20260507041403 10 69 0.0 0.0 0.00 0.00 0.00 82 1022.0
20260507035817 10 69 0.0 0.0 0.00 0.00 0.00 85 1022.0
20260507034230 10 69 0.0 0.0 0.00 0.00 0.00 82 1022.0
20260507032645 11 75 0.0 0.0 0.00 0.00 0.00 73 1022.0
20260507031054 11 75 0.0 0.0 0.00 0.00 0.00 74 1022.0
20260507025459 11 75 0.0 0.0 0.00 0.00 0.00 79 1022.0
20260507023913 11 75 0.0 0.0 0.00 0.00 0.00 77 1022.0
20260507001726 13 75 0.0 0.0 0.00 0.00 0.00 74 1018.0
20260507000138 13 75 0.0 0.0 0.00 0.00 0.00 74 1018.0
20260506234549 13 75 0.0 0.0 0.00 0.00 0.00 84 1018.0
20260506233003 14 73 0.0 0.0 0.00 0.00 0.00 82 1016.0
20260506231404 14 73 0.0 0.0 0.00 0.00 0.00 83 1016.0
20260506225815 14 73 0.0 0.0 0.00 0.00 0.00 83 1016.0
20260506224224 17 73 0.0 0.0 0.00 0.00 0.00 83 1016.0
20260506222630 16 86 0.0 0.0 0.00 0.00 0.00 83 1014.0
20260506221044 15 86 0.0 0.0 0.00 0.00 0.00 83 1014.0
20260506215446 18 86 0.0 0.0 0.00 0.00 0.00 83 1014.0
20260506213823 17 86 0.0 0.0 0.00 0.00 0.00 83 1014.0
20260506212150 16 86 0.0 0.0 0.00 0.00 0.00 83 1014.0
20260506210550 15 86 0.0 0.0 0.00 0.00 0.00 83 1014.0
20260506205001 18 86 0.0 0.0 0.00 0.00 0.00 83 1014.0
20260506203417 17 86 0.0 0.0 0.00 0.00 0.00 83 1014.0
20260506201822 16 89 0.0 0.0 0.00 0.00 0.00 83 1014.0
20260506200230 15 89 0.0 0.0 0.00 0.00 0.00 83 1014.0
20260506194647 20 89 0.0 0.0 0.00 0.00 0.00 84 1014.0
20260506193101 19 89 0.0 0.0 0.00 0.00 0.00 84 1014.0
20260506191500 18 98 0.0 0.0 0.00 0.00 0.00 84 1014.0
20260506185907 17 98 0.0 0.0 0.00 0.00 0.00 84 1014.0
20260506184320 16 98 0.0 0.0 0.00 0.00 0.00 84 1015.0
20260506182736 15 114 0.0 0.0 0.00 0.00 0.00 84 1016.0
20260506181142 13 114 0.0 0.0 0.00 0.00 0.00 84 1016.0
20260506175535 18 114 0.0 0.0 0.00 0.00 0.00 83 1016.0
20260506173951 17 121 0.0 0.0 0.00 0.00 0.00 83 1017.0
20260506172403 16 125 0.0 0.0 0.00 0.00 0.00 83 1018.0
20260506170819 15 125 0.0 0.0 0.00 0.00 0.00 83 1018.0
20260506165235 14 125 0.0 0.0 0.00 0.00 0.00 83 1018.0
20260506163641 13 125 0.0 0.0 0.00 0.00 0.00 83 1018.0
20260506162033 16 125 0.0 0.0 0.00 0.00 0.00 87 1020.0
20260506160444 15 125 0.0 0.0 0.00 0.00 0.00 87 1020.0
20260506154853 14 125 0.0 0.0 0.00 0.00 0.00 87 1020.0
20260506153300 13 125 0.0 0.0 0.00 0.00 0.00 87 1020.0
20260506151626 16 123 0.0 0.0 0.00 0.00 0.00 89 1020.0
20260506150020 15 123 0.0 0.0 0.00 0.00 0.00 89 1020.0
20260506144434 13 123 0.0 0.0 0.00 0.00 0.00 89 1020.0
20260506142846 15 106 0.0 0.0 0.00 0.00 0.00 90 1020.0
20260506141255 14 106 0.0 0.0 0.00 0.00 0.00 90 1020.0
20260506135703 13 106 0.0 0.0 0.00 0.00 0.00 90 1020.0
20260506134119 12 106 0.0 0.0 0.00 0.00 0.00 90 1020.0
20260506132532 15 94 0.0 0.0 0.00 0.00 0.00 95 1020.0
20260506130947 14 94 0.0 0.0 0.00 0.00 0.00 95 1020.0
20260506125401 13 94 0.0 0.0 0.00 0.00 0.00 95 1020.0
20260506123810 12 94 0.0 0.0 0.00 0.00 0.00 95 1020.0